Theta_e
307 308 311 311 307 309 308 309 311 309 308 309 308 308 306 302 300 299 297 296 296 295 293 292 293 294 296 301 305 305 305 303 306 306 305 299 295 296 299 297 298 301 303 304
307 308 309 307 307 308 309 309 309 308 307 308 308 309 304 302 301 299 298 297 296 294 293 292 291 292 293 295 297 300 302 303 302 302 297 294 292 290 289 289 290 291 292 292
309 311 307 308 307 308 307 308 308 311 310 308 309 311 306 301 299 298 297 296 295 294 293 291 290 289 291 292 292 294 295 296 295 294 293 291 289 288 288 287 287 287 287 287
308 308 310 309 310 309 311 306 308 310 311 314 309 318 307 303 300 298 297 295 294 293 292 290 289 288 288 289 289 290 291 292 292 292 291 290 287 286 286 287 287 287 287 287
313 310 310 312 312 309 313 307 308 310 311 309 308 311 308 302 302 300 297 295 293 292 291 290 288 287 288 288 288 288 288 288 288 289 289 288 287 287 287 287 286 286 286 286
312 308 309 310 309 309 306 307 307 305 306 311 310 311 310 306 305 300 297 295 294 292 290 289 288 287 287 287 287 287 288 287 288 288 288 287 287 287 287 286 286 286 286 285
312 311 309 306 308 306 306 309 313 314 312 314 308 309 311 305 302 301 298 295 293 291 290 289 288 287 286 286 287 287 287 287 287 287 287 287 287 286 286 286 286 285 285 285
317 319 310 306 308 310 306 309 314 315 315 314 310 313 312 302 300 300 298 296 293 291 289 288 287 287 287 287 287 287 287 287 287 287 287 287 287 286 286 286 286 286 285 284
315 316 307 305 305 308 308 309 308 309 296 308 311 309 302 300 299 299 297 295 293 291 289 288 287 287 287 287 287 288 287 287 287 287 287 287 287 287 286 286 286 286 285 283
312 315 308 306 306 306 307 306 311 309 311 311 311 311 312 304 300 298 297 295 294 291 289 288 288 287 287 287 287 287 288 287 287 287 287 287 287 286 286 286 285 283 281 280
309 312 310 307 308 309 308 309 308 309 310 311 309 310 304 304 301 299 298 296 294 291 290 289 288 288 287 287 287 287 287 287 287 287 287 286 286 285 284 282 280 280 280 280
308 311 310 309 305 305 307 307 309 313 309 306 307 310 300 302 301 299 298 296 293 291 289 288 287 287 287 287 287 287 287 287 287 286 285 285 284 283 282 281 280 280 279 279
309 314 314 314 309 306 308 306 306 306 306 305 310 310 300 300 299 299 297 296 293 290 288 287 286 286 286 287 287 287 286 286 286 285 285 284 283 283 282 281 280 279 279 278
310 312 314 320 313 307 308 307 306 309 305 308 311 307 304 301 300 297 297 295 292 291 289 287 286 286 287 287 286 285 285 285 285 284 284 283 282 281 280 279 278 277 276 275
313 315 307 306 304 306 306 306 306 307 309 312 308 309 305 304 301 299 297 294 292 291 289 287 286 285 286 286 285 285 285 285 284 283 283 282 281 279 278 277 276 275 274 274
305 313 311 309 302 303 307 305 304 306 306 305 304 305 302 300 296 295 295 294 294 293 290 288 287 286 285 285 285 285 285 284 282 283 283 281 279 278 277 276 275 275 274 273
306 306 309 311 298 303 309 305 304 304 302 306 307 308 295 296 298 297 295 295 295 293 290 287 287 286 286 286 286 285 284 282 282 282 281 279 278 276 275 274 273 273 272 270
305 306 306 300 300 307 301 290 295 305 303 301 296 294 296 296 292 292 291 293 291 287 286 286 285 286 287 286 285 285 282 281 281 280 279 277 275 274 273 272 272 271 270 269
298 302 297 302 304 302 302 290 292 296 298 299 302 295 290 287 289 290 287 287 287 286 285 286 287 287 286 285 285 283 281 280 279 278 276 275 274 273 272 271 270 270 269 268
296 297 309 294 304 306 297 287 287 291 295 290 295 292 289 288 293 291 286 285 284 286 287 287 286 286 285 284 283 281 280 278 277 276 275 274 273 272 271 270 269 269 268 267
297 297 305 299 304 300 292 287 288 294 297 285 289 288 287 289 290 288 284 284 285 286 286 286 286 286 285 283 282 280 278 277 277 276 274 273 272 271 270 269 269 268 267 266
296 299 296 294 298 302 287 287 292 292 287 287 287 287 287 287 286 286 284 283 283 284 285 285 284 284 283 282 280 278 277 276 275 274 273 272 271 270 269 268 268 267 266 264
293 294 294 295 296 289 288 289 288 288 288 287 287 286 287 286 285 284 284 282 282 284 284 285 284 282 280 279 278 277 277 275 274 273 272 270 269 268 268 267 267 265 264 262
286 285 288 289 288 288 288 287 287 287 287 287 287 285 284 286 285 284 282 282 282 283 283 283 281 279 277 277 276 276 276 274 273 272 270 269 268 268 267 266 266 264 263 262
288 286 284 285 287 288 288 287 288 287 286 287 286 285 285 284 282 283 282 281 282 283 282 282 280 278 277 276 276 275 274 273 272 270 269 268 267 267 266 265 265 264 263 263
285 286 287 287 288 288 289 289 287 286 286 285 285 284 284 284 284 282 281 283 282 282 281 279 279 278 278 276 275 274 273 271 270 269 269 267 266 265 264 264 264 266 264 265
Wind_Speed
1 4 9 16 10 4 6 4 5 4 3 4 7 6 1 4 6 7 7 8 8 8 7 14 18 21 24 27 28 28 29 28 30 30 31 32 34 33 31 30 28 26 24 23
3 9 11 5 6 4 3 4 5 4 4 4 6 8 1 4 2 3 8 8 8 6 8 13 19 24 27 29 30 31 30 29 31 33 35 36 37 36 35 33 33 31 29 28
9 4 8 7 5 6 5 6 5 7 2 3 2 5 5 3 4 6 5 5 5 6 8 9 15 22 26 31 31 32 31 33 34 35 36 36 36 33 32 32 32 31 29 29
7 4 6 5 5 8 6 9 7 6 4 4 1 5 3 4 5 4 6 5 6 6 6 8 11 19 25 28 32 34 35 34 32 31 32 33 33 30 27 28 27 28 27 27
6 7 5 5 8 7 5 6 7 4 3 1 2 1 3 6 6 8 8 8 6 6 6 7 12 19 22 26 30 32 32 32 30 31 31 33 33 29 26 25 25 25 25 26
3 1 6 8 2 7 9 6 5 4 3 3 10 9 4 6 7 11 9 8 9 8 7 10 14 19 21 23 27 29 30 30 29 29 29 29 27 24 24 23 23 22 22 22
0 4 4 4 6 2 3 6 1 1 1 6 1 4 7 5 4 15 19 15 12 9 8 9 12 17 20 22 23 25 27 27 25 26 25 24 23 22 21 20 20 21 23 24
7 6 11 7 8 8 8 7 5 7 4 2 2 6 5 1 3 6 15 14 11 10 8 9 15 19 20 21 21 22 23 23 20 20 20 18 18 18 18 19 19 21 23 24
7 6 1 3 4 8 6 6 4 5 2 2 4 4 1 3 3 12 15 13 13 11 9 10 16 19 21 20 20 20 18 18 16 15 13 13 12 13 14 14 15 17 18 20
6 2 2 3 4 2 4 8 3 1 2 4 3 4 5 7 10 11 16 17 15 11 9 11 17 21 20 18 18 16 14 13 10 9 9 8 8 8 8 9 11 13 14 17
6 3 1 4 6 10 4 4 2 4 4 5 1 5 4 8 15 19 18 17 17 16 14 12 18 23 22 19 17 15 11 9 7 6 5 4 3 3 5 8 11 15 18 22
9 3 4 8 2 1 2 7 7 5 5 2 2 6 1 3 13 15 17 18 15 15 13 16 20 24 22 20 17 15 12 10 6 6 7 6 3 5 10 13 16 18 21 23
9 4 2 4 1 2 6 5 4 5 3 7 5 5 2 5 10 14 18 17 14 12 10 10 17 21 24 22 18 16 13 12 11 8 5 2 5 9 12 15 17 20 22 24
7 5 8 14 4 5 7 6 6 7 4 6 12 4 4 5 10 11 13 13 14 14 14 12 11 18 25 22 19 16 15 13 9 5 2 3 7 10 13 15 18 21 23 24
5 7 4 2 3 3 1 4 9 9 11 9 5 10 7 12 14 17 17 11 13 15 14 13 12 17 23 21 20 18 16 13 8 5 1 5 9 12 14 17 20 22 23 24
2 2 3 4 2 3 4 6 6 5 1 4 3 10 5 4 7 8 12 14 16 14 14 13 14 17 21 25 24 21 18 13 8 3 4 8 11 13 15 19 22 25 27 28
6 5 2 3 3 3 5 8 10 6 5 8 10 13 5 5 7 12 13 14 16 12 11 13 16 20 22 27 26 23 18 13 7 3 5 9 12 13 17 21 23 26 27 27
6 4 2 3 2 3 3 3 2 11 4 7 1 4 7 5 2 4 6 12 8 8 9 10 16 22 23 24 22 20 17 11 7 4 7 9 10 14 18 22 24 26 27 28
2 5 3 4 4 4 2 6 7 8 9 10 11 6 3 3 4 2 5 5 8 9 12 20 23 23 22 24 24 21 15 11 7 5 7 9 12 17 19 22 24 26 28 30
1 3 5 3 5 7 5 3 5 4 5 7 8 7 8 6 4 4 8 7 7 16 20 19 18 20 23 24 23 20 15 11 8 7 8 9 13 17 20 22 24 26 28 28
3 1 8 5 5 6 5 5 3 6 5 3 6 6 7 5 4 3 7 5 14 20 20 16 19 24 26 25 23 19 15 12 9 8 9 11 14 17 19 22 23 25 28 28
7 8 4 2 2 8 7 5 9 5 2 5 5 8 10 4 5 4 7 8 14 18 18 17 19 21 22 24 22 19 15 11 9 9 10 11 13 15 17 19 21 23 25 27
3 6 5 8 6 1 13 4 6 5 6 6 7 8 9 8 7 8 7 8 14 22 20 20 22 23 23 24 22 19 14 12 11 10 9 10 12 14 15 18 21 24 24 22
4 3 3 3 3 4 11 4 3 6 6 4 3 6 8 8 9 8 6 7 12 20 22 23 23 25 26 25 22 18 14 13 12 10 9 10 12 14 15 17 19 21 22 19
3 7 5 1 3 2 8 10 9 8 4 3 4 6 8 6 3 7 7 8 18 23 23 25 29 29 30 28 23 19 16 14 12 10 9 10 11 13 16 16 18 19 20 18
5 6 5 5 8 7 6 12 8 8 8 9 8 5 5 9 10 7 7 18 21 24 25 26 29 29 29 28 24 21 19 15 12 10 9 10 11 12 14 17 21 17 15 17
Wind_Direction
106 128 207 204 195 139 142 180 193 234 242 179 229 242 27 108 110 126 113 102 87 69 37 55 68 77 83 90 96 95 98 98 104 102 98 89 82 79 77 72 70 67 66 65
85 223 220 139 154 165 156 168 232 280 228 172 254 253 340 29 73 138 135 118 106 92 57 50 65 77 81 86 90 95 98 101 99 99 97 95 90 83 80 75 71 68 65 63
181 200 161 144 143 160 206 188 205 222 359 235 323 252 206 56 97 103 94 109 95 94 86 57 57 73 82 85 88 92 95 99 100 102 102 99 94 87 79 72 69 64 62 59
235 212 140 157 185 176 224 204 180 183 139 234 126 283 236 167 149 153 144 137 123 108 87 80 74 78 85 90 94 94 97 98 100 103 99 93 89 85 79 76 71 65 59 55
225 160 168 178 212 153 235 145 162 144 171 88 219 284 243 140 204 190 180 166 151 139 123 111 104 101 98 97 96 96 95 92 91 91 91 92 91 88 82 74 69 61 55 49
246 138 159 191 103 164 146 83 62 68 113 248 209 188 228 191 196 172 177 175 167 157 147 137 125 120 110 106 104 102 97 93 92 89 88 88 88 85 77 66 60 52 46 41
259 210 193 144 98 67 155 123 90 325 223 230 66 180 254 185 177 174 173 178 174 166 164 159 152 137 126 119 112 107 102 99 95 91 86 83 81 77 72 63 52 41 32 26
182 267 169 190 174 174 184 168 171 205 200 230 113 226 253 4 268 173 170 169 161 169 173 172 166 151 140 132 123 117 111 107 99 92 89 82 74 65 58 46 36 31 19 10
178 266 161 165 152 145 181 197 159 108 35 58 217 272 228 97 56 152 163 160 175 180 180 178 173 162 152 143 134 127 120 112 105 93 82 70 55 45 39 32 19 13 4 354
212 197 228 175 114 24 174 154 102 16 188 252 264 263 237 199 183 170 173 180 183 181 180 183 181 171 163 153 144 138 130 118 110 98 78 58 41 29 21 9 0 358 350 349
156 172 255 124 216 176 149 173 86 137 163 187 236 251 215 197 179 183 185 185 184 184 186 186 186 177 171 164 159 149 152 135 128 95 72 72 81 57 11 1 357 355 350 349
190 122 176 211 297 310 194 189 167 170 209 217 151 259 353 234 176 175 184 189 192 187 183 185 185 182 174 173 169 165 172 160 146 137 127 114 66 0 355 352 349 346 343 339
173 184 134 319 322 305 211 196 139 99 84 191 158 256 59 101 157 186 185 196 189 183 177 174 182 183 182 181 176 181 175 167 156 144 129 87 354 344 342 338 335 334 332 332
102 163 208 222 187 142 182 181 178 171 175 173 226 229 233 190 185 190 201 191 184 182 184 188 183 188 191 187 184 181 172 169 167 162 140 342 335 336 335 334 333 334 334 334
114 205 165 89 48 67 129 156 179 197 208 202 200 221 204 199 203 204 198 178 180 188 188 187 188 191 190 188 187 180 179 178 182 183 260 331 330 330 330 333 333 332 331 330
44 162 137 148 41 44 304 223 201 230 16 261 177 259 187 163 123 155 186 180 188 192 191 189 190 185 187 190 188 184 184 186 194 210 318 320 321 324 327 328 329 330 329 329
148 134 121 201 34 63 294 222 198 189 190 195 218 240 169 198 205 195 183 181 189 185 179 185 190 188 189 196 193 188 188 192 203 249 296 308 312 319 325 328 330 330 328 327
142 119 90 139 128 216 261 24 14 217 202 204 155 212 185 192 117 119 152 183 170 163 180 184 178 189 196 192 190 189 191 196 211 254 291 301 306 319 326 328 329 328 326 324
4 135 145 162 204 331 227 193 171 169 244 207 212 193 160 109 90 234 191 164 187 182 175 179 185 189 187 189 190 190 190 200 222 257 280 295 311 320 324 326 327 326 324 322
40 2 194 159 181 205 240 238 195 124 277 218 205 165 159 138 168 228 182 171 168 175 171 174 184 187 189 191 192 191 195 207 226 255 279 294 310 317 322 324 325 324 323 318
144 164 216 191 216 275 197 185 171 120 239 161 173 151 148 183 194 187 133 156 174 171 170 171 180 190 198 193 193 195 201 215 237 258 273 297 310 317 321 321 323 321 320 318
166 168 193 103 126 259 148 78 167 194 100 160 166 172 183 146 154 146 167 157 166 171 176 185 186 195 196 196 196 198 207 222 237 255 277 297 307 314 316 316 318 320 320 320
233 186 180 187 209 213 188 171 199 165 162 190 167 178 177 157 179 177 183 177 187 186 189 197 197 193 195 198 201 203 212 221 239 259 285 302 308 315 319 319 320 321 322 315
247 161 184 98 220 225 213 237 255 203 203 156 131 153 165 176 187 189 167 178 181 192 197 199 194 197 199 201 205 211 214 223 240 262 281 297 307 314 319 319 320 317 318 311
184 132 142 289 273 296 255 229 222 228 142 138 157 174 202 191 195 172 188 196 199 199 204 203 202 203 208 204 206 211 218 227 239 257 278 294 303 312 315 316 320 316 313 305
184 160 163 209 205 191 221 215 207 199 202 202 202 207 209 185 206 188 203 210 202 201 206 205 211 212 212 206 207 211 219 228 236 252 273 286 295 304 310 317 320 325 309 307